North Vernon, Indiana, United States (47265)
Lat: 39.01N, Lon: 85.62W
Wx Zone: INZ072
Local Info
Past Weather Observations for Wednesday, October 22, 2014

NOTE: This archive is for the closest National Weather Service station to North Vernon. Information may differ from the station used for current weather conditions.

Click here for Long-term Archive

Time Weather Temperature Dewpoint Humidity Pressure Winds Precip Visibility
23:53
Clear
39°F / 4°C 36°F / 2°C 87% 30.27 in
(1025 mb)
E 5.8 mph
(E 9 kph)
- 8SM
22:53
Clear
39°F / 4°C 36°F / 2°C 87% 30.27 in
(1025 mb)
ENE 4.6 mph
(ENE 7 kph)
- 9SM
21:53
Clear
43°F / 6°C 37°F / 3°C 81% 30.27 in
(1025 mb)
E 6.9 mph
(E 11 kph)
- 10SM
20:53
Clear
43°F / 6°C 37°F / 3°C 81% 30.27 in
(1025 mb)
E 6.9 mph
(E 11 kph)
- 10SM
19:53
Clear
43°F / 6°C 37°F / 3°C 81% 30.27 in
(1025 mb)
E 6.9 mph
(E 11 kph)
- 10SM
18:53
Clear
46°F / 8°C 37°F / 3°C 71% 30.27 in
(1025 mb)
NE 4.6 mph
(NE 7 kph)
- 10SM
17:53
Clear
54°F / 12°C 39°F / 4°C 58% 30.27 in
(1025 mb)
NE 4.6 mph
(NE 7 kph)
- 10SM
16:53
Clear
57°F / 14°C 39°F / 4°C 51% 30.27 in
(1025 mb)
NNE 5.8 mph
(NNE 9 kph)
- 10SM
15:53
Clear
59°F / 15°C 39°F / 4°C 48% 30.27 in
(1025 mb)
ENE 6.9 mph
(ENE 11 kph)
- 10SM
14:53
Clear
57°F / 14°C 39°F / 4°C 51% 30.27 in
(1025 mb)
N 6.9 mph
(N 11 kph)
- 10SM
13:53
Clear
57°F / 14°C 39°F / 4°C 51% 30.27 in
(1025 mb)
NE 11.5 mph
(NE 19 kph)
- 10SM
12:53
Mostly Cloudy
55°F / 13°C 39°F / 4°C 55% 30.3 in
(1026 mb)
NNE 9.2 mph
(NNE 15 kph)
- 10SM
12:42
Mostly Cloudy
55°F / 13°C 39°F / 4°C 55% 30.3 in
(1026 mb)
NNE 6.9 mph
(NNE 11 kph)
- 10SM
12:33
Mostly Cloudy
55°F / 13°C 39°F / 4°C 55% 30.3 in
(1026 mb)
NE 5.8 mph
(NE 9 kph)
- 10SM
12:24
Partly Cloudy
54°F / 12°C 39°F / 4°C 58% 30.3 in
(1026 mb)
NE 5.8 mph
(NE 9 kph)
- 10SM
12:11
Mostly Cloudy
54°F / 12°C 39°F / 4°C 58% 30.33 in
(1027 mb)
NE 9.2 mph
(NE 15 kph)
- 10SM
12:01
Partly Cloudy
54°F / 12°C 39°F / 4°C 58% 30.33 in
(1027 mb)
ENE 8.1 mph
(ENE 13 kph)
- 10SM
11:53
Mostly Cloudy
54°F / 12°C 39°F / 4°C 58% 30.33 in
(1027 mb)
ENE 9.2 mph
(ENE 15 kph)
- 10SM
10:53
Overcast
50°F / 10°C 37°F / 3°C 62% 30.33 in
(1027 mb)
NE 8.1 mph
(NE 13 kph)
- 10SM
09:53
Overcast
48°F / 9°C 39°F / 4°C 71% 30.33 in
(1027 mb)
ENE 8.1 mph
(ENE 13 kph)
- 10SM
08:53
Overcast
46°F / 8°C 39°F / 4°C 76% 30.3 in
(1026 mb)
N 5.8 mph
(N 9 kph)
- 10SM
08:26
Mostly Cloudy
45°F / 7°C 37°F / 3°C 76% 30.3 in
(1026 mb)
NNW 3.5 mph
(NNW 6 kph)
- 10SM
08:05
Partly Cloudy
45°F / 7°C 37°F / 3°C 76% 30.3 in
(1026 mb)
N 4.6 mph
(N 7 kph)
- 10SM
07:53
Mostly Cloudy
45°F / 7°C 37°F / 3°C 76% 30.3 in
(1026 mb)
N 5.8 mph
(N 9 kph)
- 10SM
06:53
Overcast
45°F / 7°C 37°F / 3°C 76% 30.27 in
(1025 mb)
NNE 5.8 mph
(NNE 9 kph)
- 10SM
05:53
Overcast
43°F / 6°C 37°F / 3°C 81% 30.27 in
(1025 mb)
NNE 5.8 mph
(NNE 9 kph)
- 10SM
05:21
Mostly Cloudy
43°F / 6°C 36°F / 2°C 76% 30.27 in
(1025 mb)
NE 4.6 mph
(NE 7 kph)
- 10SM
04:53
Clear
41°F / 5°C 36°F / 2°C 81% 30.27 in
(1025 mb)
NE 6.9 mph
(NE 11 kph)
- 10SM
03:53
Partly Cloudy
41°F / 5°C 36°F / 2°C 81% 30.24 in
(1024 mb)
N 4.6 mph
(N 7 kph)
- 10SM
03:28
Mostly Cloudy
41°F / 5°C 36°F / 2°C 81% 30.24 in
(1024 mb)
N 3.5 mph
(N 6 kph)
- 10SM
02:53
Clear
41°F / 5°C 36°F / 2°C 81% 30.21 in
(1023 mb)
N 5.8 mph
(N 9 kph)
- 10SM
01:53
Overcast
45°F / 7°C 37°F / 3°C 76% 30.21 in
(1023 mb)
N 3.5 mph
(N 6 kph)
- 10SM
00:53
Overcast
46°F / 8°C 36°F / 2°C 66% 30.21 in
(1023 mb)
N 5.8 mph
(N 9 kph)
- 10SM
Time Weather Temperature Dewpoint Humidity Pressure Winds Precip Visibility


Weather for websites

WeatherForYou.com, LLC is not responsible for any damages or problems caused by this service. Current weather conditions are obtained from the closest station including government and personal stations which may have varying degrees of accuracy. Weather forecasts are derived from the NOAA NDFD. Like all things, this site belongs to Jesus Christ... He just trusts me to maintain it. If you have any questions or comments email webmaster@weatherforyou.com

Copyright © 2014, WeatherForYou.com LLC. All rights reserved.